Location: Unspecified
(49.2170°N, 0.0000°E)
Time: 08:38:36
(UTC+00:00)

Courier 1B Rocket - Visible Passes

Search period start: 26 June 2019 00:00
Search period end: 06 July 2019 00:00
Orbit: 920 x 1202 km, 28.2° (Epoch: 25 June)

Date Brightness Start Highest point End Pass type
(mag) Time Alt. Az. Time Alt. Az. Time Alt. Az.
27 Jun 7.1 02:34:03 10° S 02:34:51 10° SSE 02:35:37 10° SSE visible
29 Jun 6.9 02:23:35 11° S 02:25:34 12° S 02:28:13 10° SSE visible
30 Jun 7.1 01:26:04 11° SSE 01:26:04 11° SSE 01:26:54 10° SSE visible
30 Jun 6.9 03:13:55 10° SSW 03:16:59 13° S 03:19:59 10° SSE visible
01 Jul 6.8 02:14:58 13° S 02:16:17 13° S 02:19:34 10° SSE visible
02 Jul 7.0 01:17:35 12° SSE 01:17:35 12° SSE 01:18:46 10° SSE visible
02 Jul 6.9 03:04:47 10° SSW 03:07:41 13° S 03:10:33 10° SSE visible
03 Jul 6.8 02:06:41 14° S 02:07:00 14° S 02:10:28 10° SSE visible
04 Jul 7.1 01:09:34 11° SSE 01:09:34 11° SSE 01:09:57 10° SSE visible
04 Jul 6.9 02:56:12 10° SSW 02:58:22 11° SSW 03:00:30 10° S visible
05 Jul 6.9 01:59:04 13° S 01:59:04 13° S 02:00:57 10° SSE visible
